TimeHST,TemperatureF,Dew PointF,Humidity,Sea Level PressureIn,VisibilityMPH,Wind Direction,Wind SpeedMPH,Gust SpeedMPH,PrecipitationIn,Events,Conditions,WindDirDegrees,DateUTC
12:56 AM,64.9,57.9,78,30.17,10.0,NE,20.7,-,N/A,,Clear,40,2013-02-12 10:56:00
1:56 AM,63.9,55.9,75,30.16,10.0,NE,16.1,24.2,N/A,,Clear,40,2013-02-12 11:56:00
2:56 AM,63.9,54.0,70,30.13,10.0,ENE,18.4,-,N/A,,Clear,70,2013-02-12 12:56:00
3:56 AM,63.9,55.9,75,30.13,10.0,ENE,15.0,-,N/A,,Clear,60,2013-02-12 13:56:00
4:56 AM,63.9,55.9,75,30.13,10.0,East,15.0,33.4,N/A,,Clear,90,2013-02-12 14:56:00
5:56 AM,63.9,55.9,75,30.13,10.0,NE,24.2,32.2,N/A,,Clear,40,2013-02-12 15:56:00
6:56 AM,63.9,54.9,72,30.16,10.0,East,11.5,24.2,N/A,,Clear,80,2013-02-12 16:56:00
7:56 AM,66.9,54.9,65,30.14,10.0,NE,19.6,27.6,N/A,,Clear,50,2013-02-12 17:56:00
8:56 AM,70.9,56.8,61,30.17,10.0,NE,12.7,18.4,N/A,,Clear,40,2013-02-12 18:56:00
9:56 AM,72.9,56.8,57,30.16,10.0,ENE,11.5,-,N/A,,Clear,70,2013-02-12 19:56:00
10:56 AM,73.9,57.9,57,30.17,10.0,NE,17.3,21.9,N/A,,Partly Cloudy,40,2013-02-12 20:56:00
11:56 AM,75.9,59.0,56,30.13,10.0,NE,18.4,-,N/A,,Partly Cloudy,50,2013-02-12 21:56:00
12:56 PM,74.8,57.9,55,30.12,10.0,NE,21.9,25.3,N/A,,Scattered Clouds,50,2013-02-12 22:56:00
1:56 PM,74.8,59.0,58,30.09,10.0,NE,20.7,27.6,N/A,,Partly Cloudy,40,2013-02-12 23:56:00
2:56 PM,73.9,59.9,61,30.08,10.0,NE,19.6,-,N/A,,Clear,40,2013-02-13 00:56:00
3:56 PM,72.9,59.9,64,30.07,10.0,NE,23.0,26.5,N/A,,Partly Cloudy,50,2013-02-13 01:56:00
4:56 PM,71.6,59.0,64,30.13,10.0,ENE,17.3,23.0,N/A,,Scattered Clouds,60,2013-02-13 02:56:00
5:56 PM,66.9,59.9,78,30.10,10.0,NE,18.4,-,N/A,,Partly Cloudy,50,2013-02-13 03:56:00
6:56 PM,64.9,57.9,78,30.12,10.0,NE,12.7,20.7,N/A,,Clear,50,2013-02-13 04:56:00
7:56 PM,64.9,57.9,78,30.13,10.0,NE,17.3,-,N/A,,Clear,50,2013-02-13 05:56:00
8:56 PM,64.9,57.9,78,30.13,10.0,NE,18.4,25.3,N/A,,Clear,50,2013-02-13 06:56:00
9:56 PM,63.9,56.8,78,30.13,10.0,ENE,13.8,-,N/A,,Clear,60,2013-02-13 07:56:00
10:56 PM,63.9,55.9,75,30.14,10.0,NE,16.1,-,N/A,,Clear,50,2013-02-13 08:56:00
11:56 PM,63.0,54.9,75,30.13,10.0,NE,12.7,-,N/A,,Clear,50,2013-02-13 09:56:00